| time (UTC) | temp F | wind direction | speed MPH | gust MPH | rain 1hr in | rain 24hr in | rain mn in | humidity % | barometer mb |
| 20260508005000 | 56 | 260 | 6.0 | 9.0 | 0.00 | 0.17 | 0.01 | 89 | 996.9 |
| 20260508004500 | 56 | 264 | 5.0 | 8.0 | 0.00 | 0.20 | 0.01 | 89 | 997.0 |
| 20260508004000 | 56 | 266 | 6.0 | 11.0 | 0.00 | 0.24 | 0.01 | 89 | 997.1 |
| 20260508003500 | 56 | 266 | 6.0 | 13.0 | 0.00 | 0.29 | 0.01 | 89 | 997.1 |
| 20260508003000 | 56 | 262 | 6.0 | 13.0 | 0.00 | 0.32 | 0.01 | 89 | 997.1 |
| 20260508002500 | 56 | 261 | 6.0 | 9.0 | 0.00 | 0.35 | 0.01 | 89 | 997.1 |
| 20260508002000 | 56 | 266 | 6.0 | 10.0 | 0.00 | 0.35 | 0.01 | 89 | 997.1 |
| 20260508001500 | 56 | 267 | 6.0 | 10.0 | 0.00 | 0.35 | 0.01 | 89 | 997.3 |
| 20260508001000 | 56 | 264 | 6.0 | 10.0 | 0.00 | 0.35 | 0.01 | 89 | 997.1 |
| 20260508000500 | 56 | 271 | 5.0 | 9.0 | 0.00 | 0.35 | 0.01 | 88 | 996.9 |
| 20260508000000 | 56 | 278 | 4.0 | 8.0 | 0.00 | 0.35 | 0.01 | 88 | 997.0 |
| 20260507235500 | 56 | 274 | 3.0 | 8.0 | 0.00 | 0.35 | 0.01 | 88 | 997.1 |
| 20260507235000 | 56 | 265 | 3.0 | 8.0 | 0.00 | 0.36 | 0.01 | 88 | 997.0 |
| 20260507234500 | 56 | 262 | 5.0 | 9.0 | 0.00 | 0.39 | 0.01 | 88 | 996.7 |
| 20260507234000 | 56 | 259 | 5.0 | 9.0 | 0.00 | 0.48 | 0.01 | 88 | 996.6 |
| 20260507233500 | 56 | 253 | 5.0 | 9.0 | 0.00 | 0.54 | 0.01 | 88 | 996.4 |
| 20260507233000 | 56 | 249 | 6.0 | 11.0 | 0.00 | 0.56 | 0.01 | 87 | 996.3 |
| 20260507232500 | 57 | 250 | 6.0 | 11.0 | 0.00 | 0.57 | 0.01 | 87 | 996.3 |
| 20260507232000 | 57 | 252 | 6.0 | 10.0 | 0.00 | 0.57 | 0.01 | 87 | 996.3 |
| 20260507231500 | 57 | 251 | 6.0 | 8.0 | 0.00 | 0.58 | 0.01 | 87 | 996.5 |
| 20260507231000 | 57 | 244 | 5.0 | 8.0 | 0.00 | 0.63 | 0.01 | 86 | 996.6 |
| 20260507230500 | 57 | 239 | 5.0 | 12.0 | 0.00 | 0.66 | 0.01 | 86 | 996.6 |
| 20260507230000 | 57 | 239 | 6.0 | 12.0 | 0.00 | 0.69 | 0.01 | 86 | 996.6 |
| 20260507225500 | 57 | 242 | 6.0 | 8.0 | 0.00 | 0.74 | 0.01 | 86 | 996.5 |
| 20260507225000 | 57 | 246 | 5.0 | 9.0 | 0.00 | 0.79 | 0.01 | 85 | 996.5 |
| 20260507224500 | 57 | 247 | 5.0 | 10.0 | 0.00 | 0.83 | 0.01 | 85 | 996.6 |
| 20260507224000 | 57 | 248 | 6.0 | 11.0 | 0.00 | 0.89 | 0.01 | 85 | 996.7 |
| 20260507223500 | 57 | 244 | 6.0 | 11.0 | 0.00 | 0.95 | 0.01 | 85 | 996.7 |
| 20260507223000 | 57 | 242 | 8.0 | 15.0 | 0.00 | 1.13 | 0.01 | 85 | 996.5 |
| 20260507222500 | 57 | 243 | 9.0 | 16.0 | 0.00 | 1.24 | 0.01 | 85 | 996.6 |
| 20260507222000 | 57 | 242 | 9.0 | 16.0 | 0.00 | 1.34 | 0.01 | 85 | 996.4 |
| 20260507221500 | 57 | 241 | 9.0 | 15.0 | 0.00 | 1.37 | 0.01 | 85 | 996.3 |
| 20260507221000 | 57 | 238 | 9.0 | 15.0 | 0.00 | 1.41 | 0.01 | 85 | 996.0 |
| 20260507220500 | 57 | 239 | 9.0 | 16.0 | 0.00 | 1.42 | 0.01 | 85 | 996.2 |
| 20260507220000 | 57 | 237 | 9.0 | 16.0 | 0.00 | 1.43 | 0.01 | 85 | 996.2 |
| 20260507215500 | 57 | 233 | 9.0 | 17.0 | 0.00 | 1.46 | 0.01 | 85 | 996.0 |
| 20260507215000 | 58 | 234 | 10.0 | 17.0 | 0.00 | 1.49 | 0.01 | 85 | 995.9 |
| 20260507214500 | 58 | 236 | 10.0 | 19.0 | 0.00 | 1.51 | 0.01 | 85 | 995.9 |
| 20260507214000 | 57 | 236 | 11.0 | 19.0 | 0.00 | 1.53 | 0.01 | 85 | 995.9 |
| 20260507213500 | 57 | 230 | 11.0 | 18.0 | 0.00 | 1.53 | 0.01 | 85 | 995.9 |
| 20260507213000 | 58 | 226 | 11.0 | 19.0 | 0.00 | 1.54 | 0.01 | 85 | 995.7 |
| 20260507212500 | 58 | 226 | 10.0 | 19.0 | 0.00 | 1.60 | 0.01 | 85 | 995.5 |
| 20260507212000 | 57 | 226 | 9.0 | 18.0 | 0.00 | 1.61 | 0.01 | 85 | 995.3 |
| 20260507211500 | 58 | 229 | 9.0 | 18.0 | 0.00 | 1.62 | 0.01 | 86 | 995.2 |
| 20260507211000 | 58 | 231 | 10.0 | 18.0 | 0.00 | 1.64 | 0.01 | 86 | 995.5 |
| 20260507210500 | 58 | 231 | 9.0 | 18.0 | 0.00 | 1.65 | 0.01 | 86 | 995.7 |
| 20260507210000 | 58 | 231 | 8.0 | 14.0 | 0.00 | 1.68 | 0.01 | 87 | 995.9 |
| 20260507205500 | 58 | 236 | 11.0 | 17.0 | 0.00 | 1.73 | 0.01 | 87 | 996.3 |
| 20260507205000 | 58 | 237 | 11.0 | 18.0 | 0.00 | 1.77 | 0.01 | 87 | 996.2 |
| 20260507204500 | 58 | 238 | 10.0 | 18.0 | 0.00 | 1.89 | 0.01 | 87 | 996.2 |
| 20260507204000 | 58 | 240 | 11.0 | 16.0 | 0.00 | 1.89 | 0.01 | 87 | 996.4 |
| 20260507203500 | 58 | 239 | 12.0 | 20.0 | 0.00 | 1.90 | 0.01 | 87 | 996.8 |
| 20260507203000 | 58 | 240 | 12.0 | 20.0 | 0.00 | 1.90 | 0.01 | 87 | 996.9 |
| 20260507202500 | 58 | 244 | 13.0 | 21.0 | 0.00 | 1.91 | 0.01 | 87 | 997.0 |
| 20260507202000 | 58 | 245 | 13.0 | 21.0 | 0.00 | 1.93 | 0.01 | 87 | 997.2 |
| 20260507201500 | 58 | 243 | 12.0 | 19.0 | 0.00 | 1.93 | 0.01 | 88 | 997.3 |
| 20260507201000 | 58 | 238 | 12.0 | 21.0 | 0.00 | 1.93 | 0.01 | 88 | 997.3 |
| 20260507200500 | 58 | 239 | 11.0 | 21.0 | 0.00 | 1.93 | 0.01 | 88 | 997.2 |
| 20260507200000 | 58 | 241 | 10.0 | 19.0 | 0.00 | 1.93 | 0.01 | 89 | 997.4 |
| 20260507195500 | 58 | 239 | 11.0 | 18.0 | 0.00 | 1.93 | 0.01 | 90 | 997.5 |
| 20260507195000 | 58 | 235 | 12.0 | 20.0 | 0.00 | 1.93 | 0.01 | 90 | 997.5 |
| 20260507194500 | 58 | 234 | 11.0 | 20.0 | 0.00 | 1.93 | 0.01 | 90 | 997.5 |
| 20260507194000 | 58 | 236 | 10.0 | 16.0 | 0.00 | 1.93 | 0.01 | 90 | 997.3 |
| 20260507193500 | 58 | 237 | 10.0 | 17.0 | 0.00 | 1.94 | 0.01 | 91 | 997.4 |
| 20260507193000 | 58 | 238 | 10.0 | 17.0 | 0.00 | 1.94 | 0.01 | 91 | 997.6 |
| 20260507192500 | 58 | 239 | 10.0 | 18.0 | 0.00 | 1.96 | 0.01 | 92 | 997.4 |
| 20260507192000 | 58 | 239 | 11.0 | 18.0 | 0.00 | 2.07 | 0.01 | 92 | 997.3 |
| 20260507191500 | 58 | 242 | 10.0 | 17.0 | 0.00 | 2.14 | 0.01 | 93 | 997.4 |
| 20260507191000 | 58 | 246 | 10.0 | 16.0 | 0.00 | 2.17 | 0.01 | 93 | 997.6 |
| 20260507190500 | 58 | 246 | 11.0 | 16.0 | 0.00 | 2.19 | 0.01 | 93 | 997.5 |
| 20260507190000 | 58 | 242 | 11.0 | 19.0 | 0.00 | 2.25 | 0.01 | 93 | 997.4 |
| 20260507185500 | 58 | 238 | 11.0 | 19.0 | 0.00 | 2.26 | 0.01 | 93 | 997.4 |
| 20260507185000 | 58 | 239 | 12.0 | 17.0 | 0.00 | 2.26 | 0.01 | 93 | 997.3 |
| 20260507184500 | 58 | 241 | 12.0 | 18.0 | 0.00 | 2.26 | 0.01 | 93 | 997.2 |
| 20260507184000 | 58 | 237 | 11.0 | 18.0 | 0.00 | 2.26 | 0.01 | 93 | 997.3 |
| 20260507183500 | 58 | 235 | 9.0 | 16.0 | 0.00 | 2.26 | 0.01 | 93 | 997.2 |
| 20260507183000 | 58 | 241 | 10.0 | 19.0 | 0.00 | 2.26 | 0.01 | 93 | 997.2 |
| 20260507182500 | 58 | 242 | 12.0 | 21.0 | 0.00 | 2.26 | 0.01 | 93 | 997.2 |
| 20260507181959 | 58 | 241 | 13.0 | 21.0 | 0.00 | 2.26 | 0.01 | 93 | 997.3 |
| 20260507181500 | 58 | 240 | 12.0 | 20.0 | 0.00 | 2.26 | 0.01 | 93 | 997.1 |
| 20260507180959 | 58 | 241 | 10.0 | 20.0 | 0.00 | 2.26 | 0.01 | 93 | 997.2 |
| 20260507180459 | 59 | 247 | 9.0 | 17.0 | 0.00 | 2.26 | 0.01 | 94 | 997.2 |
| 20260507180000 | 58 | 244 | 9.0 | 17.0 | 0.00 | 2.26 | 0.01 | 94 | 997.4 |
| 20260507175459 | 58 | 237 | 9.0 | 16.0 | 0.00 | 2.26 | 0.01 | 94 | 997.4 |
| 20260507175000 | 58 | 234 | 9.0 | 16.0 | 0.00 | 2.26 | 0.01 | 94 | 997.4 |
| 20260507174500 | 58 | 228 | 7.0 | 15.0 | 0.00 | 2.26 | 0.01 | 94 | 997.4 |
| 20260507173959 | 58 | 228 | 8.0 | 16.0 | 0.00 | 2.26 | 0.01 | 94 | 997.1 |
| 20260507173500 | 58 | 231 | 9.0 | 16.0 | 0.00 | 2.26 | 0.01 | 94 | 997.0 |
| 20260507173000 | 58 | 229 | 9.0 | 13.0 | 0.00 | 2.26 | 0.01 | 94 | 996.9 |
| 20260507172500 | 58 | 235 | 9.0 | 16.0 | 0.00 | 2.26 | 0.01 | 94 | 997.0 |
| 20260507172000 | 58 | 239 | 8.0 | 16.0 | 0.00 | 2.27 | 0.01 | 94 | 996.9 |
| 20260507171500 | 58 | 237 | 8.0 | 15.0 | 0.00 | 2.27 | 0.01 | 94 | 996.8 |
| 20260507171000 | 58 | 239 | 9.0 | 15.0 | 0.00 | 2.27 | 0.01 | 94 | 996.8 |
| 20260507170500 | 58 | 244 | 9.0 | 14.0 | 0.00 | 2.28 | 0.01 | 94 | 996.9 |
| 20260507170000 | 58 | 242 | 9.0 | 14.0 | 0.00 | 2.31 | 0.01 | 94 | 997.0 |
| 20260507165459 | 57 | 241 | 9.0 | 16.0 | 0.00 | 2.32 | 0.01 | 94 | 997.1 |
| 20260507164959 | 57 | 240 | 9.0 | 16.0 | 0.00 | 2.32 | 0.01 | 94 | 997.1 |
| 20260507164500 | 58 | 241 | 9.0 | 14.0 | 0.00 | 2.32 | 0.01 | 94 | 997.1 |
| 20260507164000 | 58 | 242 | 8.0 | 14.0 | 0.00 | 2.32 | 0.01 | 94 | 997.2 |
| 20260507163459 | 58 | 235 | 7.0 | 12.0 | 0.00 | 2.32 | 0.01 | 94 | 997.5 |
| 20260507163000 | 58 | 234 | 6.0 | 12.0 | 0.00 | 2.32 | 0.01 | 94 | 997.4 |
| 20260507162459 | 58 | 234 | 5.0 | 9.0 | 0.00 | 2.32 | 0.01 | 93 | 997.4 |
| 20260507161959 | 58 | 236 | 5.0 | 11.0 | 0.00 | 2.32 | 0.01 | 93 | 997.5 |
| 20260507161500 | 58 | 242 | 7.0 | 11.0 | 0.00 | 2.32 | 0.01 | 93 | 997.6 |
| 20260507160959 | 58 | 240 | 7.0 | 11.0 | 0.00 | 2.32 | 0.01 | 93 | 997.6 |
| 20260507160500 | 58 | 234 | 7.0 | 11.0 | 0.00 | 2.32 | 0.01 | 92 | 997.6 |
| 20260507160001 | 58 | 229 | 6.0 | 9.0 | 0.00 | 2.32 | 0.01 | 91 | 997.6 |
| 20260507155500 | 58 | 225 | 6.0 | 13.0 | 0.00 | 2.32 | 0.01 | 91 | 997.2 |
| 20260507154959 | 58 | 225 | 7.0 | 13.0 | 0.00 | 2.32 | 0.01 | 92 | 996.9 |
| 20260507154500 | 58 | 222 | 8.0 | 13.0 | 0.00 | 2.32 | 0.01 | 91 | 996.9 |
| 20260507153959 | 58 | 218 | 8.0 | 13.0 | 0.00 | 2.32 | 0.01 | 92 | 996.9 |
| 20260507153459 | 58 | 224 | 9.0 | 16.0 | 0.00 | 2.32 | 0.01 | 91 | 996.7 |
| 20260507152959 | 58 | 226 | 10.0 | 16.0 | 0.00 | 2.32 | 0.01 | 92 | 996.5 |
| 20260507152500 | 58 | 225 | 10.0 | 15.0 | 0.00 | 2.32 | 0.01 | 92 | 996.5 |
| 20260507151959 | 58 | 225 | 10.0 | 17.0 | 0.01 | 2.32 | 0.01 | 92 | 996.4 |
| 20260507151459 | 58 | 223 | 10.0 | 17.0 | 0.01 | 2.32 | 0.01 | 92 | 996.2 |
| 20260507151000 | 57 | 225 | 11.0 | 14.0 | 0.01 | 2.32 | 0.01 | 92 | 996.2 |
| 20260507145500 | 57 | 203 | 9.0 | 18.0 | 0.01 | 2.32 | 0.01 | 92 | 996.2 |
| 20260507145000 | 58 | 210 | 9.0 | 15.0 | 0.01 | 2.32 | 0.01 | 93 | 996.3 |
| 20260507144500 | 57 | 217 | 9.0 | 15.0 | 0.01 | 2.32 | 0.01 | 92 | 996.7 |
| 20260507144000 | 57 | 218 | 8.0 | 14.0 | 0.01 | 2.32 | 0.01 | 92 | 996.4 |
| 20260507143500 | 57 | 216 | 8.0 | 13.0 | 0.01 | 2.32 | 0.01 | 92 | 996.4 |
| 20260507143002 | 57 | 209 | 8.0 | 14.0 | 0.01 | 2.32 | 0.01 | 92 | 996.5 |
| 20260507142500 | 58 | 208 | 8.0 | 14.0 | 0.01 | 2.32 | 0.01 | 92 | 997.2 |
| 20260507142000 | 58 | 208 | 7.0 | 13.0 | 0.00 | 2.31 | 0.00 | 92 | 997.9 |
| 20260507141501 | 58 | 198 | 7.0 | 13.0 | 0.00 | 2.31 | 0.00 | 92 | 997.9 |
| 20260507141000 | 58 | 188 | 8.0 | 15.0 | 0.00 | 2.31 | 0.00 | 91 | 997.5 |
| 20260507140500 | 58 | 187 | 9.0 | 15.0 | 0.00 | 2.31 | 0.00 | 91 | 997.0 |
| 20260507140000 | 58 | 200 | 8.0 | 13.0 | 0.00 | 2.31 | 0.00 | 90 | 997.5 |
| 20260507135500 | 58 | 214 | 9.0 | 15.0 | 0.00 | 2.31 | 0.00 | 90 | 997.6 |
| 20260507135000 | 58 | 218 | 8.0 | 15.0 | 0.00 | 2.31 | 0.00 | 90 | 997.6 |
| 20260507134500 | 58 | 214 | 6.0 | 11.0 | 0.00 | 2.31 | 0.00 | 90 | 997.8 |
| 20260507134000 | 58 | 219 | 6.0 | 9.0 | 0.00 | 2.31 | 0.00 | 90 | 997.9 |
| 20260507133500 | 58 | 222 | 6.0 | 11.0 | 0.00 | 2.31 | 0.00 | 90 | 997.9 |
| 20260507133000 | 58 | 221 | 7.0 | 11.0 | 0.00 | 2.31 | 0.00 | 89 | 998.0 |
| 20260507132500 | 58 | 214 | 7.0 | 11.0 | 0.00 | 2.31 | 0.00 | 89 | 997.9 |
| 20260507132000 | 58 | 216 | 6.0 | 11.0 | 0.00 | 2.31 | 0.00 | 89 | 997.9 |
| 20260507131500 | 58 | 226 | 7.0 | 13.0 | 0.00 | 2.31 | 0.00 | 89 | 997.9 |
| 20260507131000 | 58 | 227 | 8.0 | 14.0 | 0.00 | 2.31 | 0.00 | 89 | 997.8 |
| 20260507130500 | 58 | 225 | 8.0 | 14.0 | 0.00 | 2.31 | 0.00 | 90 | 997.7 |
| 20260507130000 | 58 | 216 | 8.0 | 13.0 | 0.00 | 2.31 | 0.00 | 90 | 997.1 |
| 20260507125500 | 58 | 219 | 9.0 | 16.0 | 0.00 | 2.31 | 0.00 | 90 | 997.0 |
| 20260507125000 | 58 | 224 | 9.0 | 16.0 | 0.00 | 2.31 | 0.00 | 90 | 996.7 |
| 20260507124500 | 58 | 226 | 10.0 | 19.0 | 0.00 | 2.31 | 0.00 | 90 | 996.5 |
| 20260507124000 | 58 | 228 | 11.0 | 19.0 | 0.00 | 2.31 | 0.00 | 91 | 996.3 |
| 20260507123500 | 58 | 224 | 10.0 | 17.0 | 0.00 | 2.31 | 0.00 | 91 | 995.9 |
| 20260507123000 | 58 | 227 | 11.0 | 18.0 | 0.00 | 2.31 | 0.00 | 92 | 996.0 |
| 20260507122500 | 58 | 229 | 11.0 | 18.0 | 0.00 | 2.31 | 0.00 | 92 | 996.2 |
| 20260507122000 | 58 | 224 | 11.0 | 20.0 | 0.00 | 2.31 | 0.00 | 92 | 996.4 |
| 20260507121500 | 58 | 221 | 10.0 | 20.0 | 0.00 | 2.31 | 0.00 | 93 | 996.5 |
| 20260507121000 | 58 | 212 | 9.0 | 15.0 | 0.00 | 2.31 | 0.00 | 93 | 996.9 |
| 20260507120500 | 58 | 202 | 8.0 | 15.0 | 0.00 | 2.31 | 0.00 | 93 | 996.8 |
| 20260507120000 | 58 | 207 | 8.0 | 15.0 | 0.00 | 2.31 | 0.00 | 93 | 996.7 |
| 20260507115500 | 58 | 211 | 9.0 | 15.0 | 0.00 | 2.31 | 0.00 | 93 | 996.9 |
| 20260507115000 | 59 | 202 | 8.0 | 14.0 | 0.00 | 2.31 | 0.00 | 94 | 997.0 |
| 20260507114500 | 59 | 193 | 7.0 | 14.0 | 0.00 | 2.31 | 0.00 | 94 | 997.0 |
| 20260507114000 | 59 | 195 | 7.0 | 14.0 | 0.00 | 2.31 | 0.00 | 94 | 997.0 |
| 20260507113500 | 59 | 197 | 9.0 | 16.0 | 0.00 | 2.31 | 0.00 | 94 | 996.8 |
| 20260507113000 | 59 | 196 | 9.0 | 18.0 | 0.00 | 2.31 | 0.00 | 94 | 996.3 |
| 20260507112500 | 58 | 193 | 9.0 | 18.0 | 0.00 | 2.31 | 0.00 | 94 | 996.3 |
| 20260507112000 | 59 | 195 | 9.0 | 16.0 | 0.00 | 2.31 | 0.00 | 94 | 996.3 |
| 20260507111500 | 59 | 197 | 9.0 | 17.0 | 0.00 | 2.31 | 0.00 | 94 | 996.4 |
| 20260507111000 | 59 | 198 | 9.0 | 17.0 | 0.00 | 2.31 | 0.00 | 94 | 996.3 |
| 20260507110500 | 60 | 221 | 8.0 | 13.0 | 0.00 | 2.31 | 0.00 | 94 | 996.5 |
| 20260507110000 | 60 | 236 | 8.0 | 15.0 | 0.00 | 2.31 | 0.00 | 94 | 996.7 |
| 20260507105500 | 60 | 235 | 9.0 | 15.0 | 0.00 | 2.31 | 0.00 | 94 | 996.4 |
| 20260507105000 | 60 | 233 | 10.0 | 16.0 | 0.00 | 2.31 | 0.00 | 94 | 996.1 |
| 20260507104500 | 60 | 236 | 11.0 | 19.0 | 0.00 | 2.31 | 0.00 | 94 | 995.9 |
| 20260507104000 | 59 | 238 | 11.0 | 19.0 | 0.00 | 2.31 | 0.00 | 94 | 996.2 |
| 20260507103500 | 59 | 243 | 10.0 | 15.0 | 0.00 | 2.31 | 0.00 | 94 | 996.6 |
| 20260507103000 | 59 | 247 | 10.0 | 15.0 | 0.00 | 2.31 | 0.00 | 94 | 996.7 |
| 20260507102500 | 59 | 247 | 9.0 | 15.0 | 0.00 | 2.31 | 0.00 | 94 | 996.8 |
| 20260507102000 | 59 | 247 | 9.0 | 14.0 | 0.00 | 2.31 | 0.00 | 94 | 996.8 |
| 20260507101500 | 59 | 250 | 10.0 | 16.0 | 0.00 | 2.31 | 0.00 | 94 | 996.7 |
| 20260507101000 | 59 | 252 | 9.0 | 16.0 | 0.00 | 2.31 | 0.00 | 93 | 996.7 |
| 20260507100500 | 59 | 252 | 9.0 | 14.0 | 0.00 | 2.31 | 0.00 | 93 | 996.9 |
| 20260507100000 | 59 | 251 | 10.0 | 16.0 | 0.00 | 2.31 | 0.00 | 93 | 996.9 |
| 20260507095500 | 59 | 246 | 9.0 | 16.0 | 0.00 | 2.31 | 0.00 | 93 | 996.9 |
| 20260507095000 | 60 | 244 | 8.0 | 16.0 | 0.00 | 2.31 | 0.00 | 93 | 996.9 |
| 20260507094500 | 60 | 249 | 9.0 | 16.0 | 0.00 | 2.31 | 0.00 | 93 | 997.1 |
| 20260507094000 | 60 | 250 | 9.0 | 14.0 | 0.00 | 2.31 | 0.00 | 93 | 997.3 |
| 20260507093500 | 60 | 246 | 8.0 | 13.0 | 0.00 | 2.31 | 0.00 | 93 | 997.3 |
| 20260507093000 | 60 | 244 | 9.0 | 14.0 | 0.00 | 2.31 | 0.00 | 93 | 997.3 |
| 20260507092500 | 60 | 241 | 8.0 | 14.0 | 0.00 | 2.31 | 0.00 | 93 | 997.4 |
| 20260507092000 | 61 | 234 | 6.0 | 12.0 | 0.00 | 2.31 | 0.00 | 93 | 997.3 |
| 20260507091500 | 61 | 237 | 4.0 | 7.0 | 0.00 | 2.31 | 0.00 | 93 | 997.3 |
| 20260507091000 | 61 | 245 | 3.0 | 6.0 | 0.00 | 2.31 | 0.00 | 93 | 997.6 |
| 20260507090500 | 61 | 243 | 3.0 | 5.0 | 0.00 | 2.31 | 0.00 | 93 | 998.0 |
| 20260507090000 | 61 | 238 | 3.0 | 5.0 | 0.00 | 2.31 | 0.00 | 93 | 998.2 |
| 20260507085500 | 61 | 240 | 3.0 | 5.0 | 0.00 | 2.31 | 0.00 | 93 | 998.3 |
| 20260507085000 | 61 | 241 | 3.0 | 4.0 | 0.00 | 2.31 | 0.00 | 93 | 998.2 |
| 20260507084500 | 61 | 247 | 2.0 | 4.0 | 0.00 | 2.31 | 0.00 | 93 | 998.1 |
| 20260507084000 | 61 | 253 | 2.0 | 3.0 | 0.00 | 2.31 | 0.00 | 93 | 998.1 |
| 20260507083500 | 61 | 238 | 1.0 | 3.0 | 0.00 | 2.31 | 0.00 | 93 | 997.6 |
| 20260507083000 | 61 | 214 | 0.0 | 3.0 | 0.00 | 2.31 | 0.00 | 92 | 997.4 |
| 20260507082500 | 61 | 81 | 0.0 | 1.0 | 0.00 | 2.31 | 0.00 | 92 | 997.4 |
| 20260507082000 | 61 | 87 | 1.0 | 2.0 | 0.00 | 2.31 | 0.00 | 93 | 997.2 |
| 20260507081500 | 61 | 85 | 2.0 | 3.0 | 0.00 | 2.31 | 0.00 | 93 | 996.7 |
| 20260507081000 | 61 | 80 | 2.0 | 3.0 | 0.00 | 2.31 | 0.00 | 92 | 996.5 |
| 20260507080500 | 61 | 73 | 1.0 | 3.0 | 0.00 | 2.31 | 0.00 | 92 | 996.4 |
| 20260507080000 | 61 | 83 | 0.0 | 2.0 | 0.00 | 2.31 | 0.00 | 92 | 996.5 |
| 20260507075500 | 61 | 62 | 2.0 | 5.0 | 0.00 | 2.31 | 0.00 | 92 | 996.4 |
| 20260507074959 | 61 | 49 | 4.0 | 7.0 | 0.00 | 2.31 | 0.00 | 92 | 996.7 |
| 20260507074500 | 61 | 49 | 5.0 | 7.0 | 0.00 | 2.31 | 0.00 | 92 | 997.1 |
| 20260507073959 | 61 | 57 | 5.0 | 7.0 | 0.00 | 2.31 | 0.00 | 92 | 997.2 |
| 20260507073500 | 61 | 60 | 3.0 | 6.0 | 0.00 | 2.31 | 0.00 | 92 | 997.1 |
| 20260507073000 | 61 | 51 | 2.0 | 3.0 | 0.00 | 2.31 | 0.00 | 92 | 997.0 |
| 20260507072500 | 61 | 36 | 1.0 | 2.0 | 0.00 | 2.31 | 0.00 | 92 | 996.9 |
| 20260507072000 | 61 | 37 | 1.0 | 3.0 | 0.00 | 2.31 | 0.00 | 92 | 996.7 |
| 20260507071500 | 61 | 63 | 3.0 | 6.0 | 0.00 | 2.31 | 0.00 | 92 | 997.0 |
| 20260507071000 | 61 | 74 | 5.0 | 8.0 | 0.00 | 2.31 | 0.00 | 92 | 997.0 |
| 20260507070459 | 61 | 79 | 7.0 | 10.0 | 0.00 | 2.31 | 0.00 | 92 | 997.1 |
| 20260507070000 | 61 | 80 | 9.0 | 12.0 | 0.00 | 2.31 | 0.00 | 92 | 997.2 |
| 20260507065500 | 61 | 79 | 9.0 | 12.0 | 0.00 | 2.31 | 0.00 | 92 | 997.2 |
| 20260507065000 | 61 | 81 | 8.0 | 11.0 | 0.00 | 2.31 | 0.00 | 92 | 997.3 |
| 20260507064500 | 61 | 85 | 8.0 | 14.0 | 0.00 | 2.31 | 0.00 | 91 | 997.4 |
| 20260507064000 | 61 | 81 | 10.0 | 14.0 | 0.00 | 2.31 | 0.00 | 91 | 997.4 |
| 20260507063500 | 61 | 75 | 8.0 | 14.0 | 0.00 | 2.31 | 0.00 | 91 | 997.9 |
| 20260507063000 | 61 | 77 | 8.0 | 12.0 | 0.00 | 2.31 | 0.00 | 91 | 998.0 |
| 20260507062500 | 61 | 82 | 11.0 | 15.0 | 0.00 | 2.31 | 0.00 | 91 | 998.0 |
| 20260507062000 | 61 | 86 | 12.0 | 16.0 | 0.00 | 2.31 | 0.00 | 91 | 997.8 |
| 20260507061459 | 61 | 94 | 8.0 | 16.0 | 0.00 | 2.31 | 0.00 | 92 | 997.4 |
| 20260507060959 | 62 | 96 | 8.0 | 17.0 | 0.00 | 2.31 | 0.00 | 92 | 997.1 |
| 20260507060459 | 62 | 92 | 12.0 | 17.0 | 0.00 | 2.31 | 0.00 | 92 | 997.2 |
| 20260507060000 | 61 | 93 | 11.0 | 17.0 | 0.00 | 2.31 | 0.00 | 93 | 996.9 |
| 20260507055459 | 61 | 90 | 9.0 | 17.0 | 0.00 | 2.31 | 0.00 | 93 | 996.7 |
| 20260507054959 | 61 | 82 | 9.0 | 15.0 | 0.00 | 2.31 | 0.00 | 93 | 997.1 |
| 20260507054500 | 61 | 73 | 10.0 | 15.0 | 0.00 | 2.31 | 0.00 | 94 | 997.4 |
| 20260507053959 | 61 | 69 | 8.0 | 11.0 | 0.00 | 2.31 | 0.00 | 94 | 997.4 |
| 20260507053500 | 61 | 84 | 7.0 | 9.0 | 0.00 | 2.31 | 0.00 | 94 | 997.7 |
| 20260507053000 | 62 | 90 | 9.0 | 12.0 | 0.00 | 2.31 | 0.00 | 94 | 997.5 |
| 20260507052500 | 61 | 89 | 9.0 | 15.0 | 0.00 | 2.31 | 0.00 | 94 | 997.4 |
| 20260507051959 | 61 | 95 | 7.0 | 15.0 | 0.00 | 2.31 | 0.00 | 94 | 997.2 |
| 20260507051500 | 61 | 98 | 7.0 | 13.0 | 0.00 | 2.31 | 0.00 | 94 | 997.0 |
| 20260507051000 | 61 | 92 | 6.0 | 13.0 | 0.00 | 2.31 | 0.00 | 94 | 996.9 |
| 20260507050500 | 61 | 77 | 3.0 | 12.0 | 0.00 | 2.31 | 0.00 | 94 | 997.0 |
| 20260507050000 | 61 | 63 | 1.0 | 3.0 | 0.00 | 2.31 | 0.00 | 95 | 996.8 |
| 20260507045500 | 61 | 45 | 2.0 | 6.0 | 0.00 | 2.31 | 0.00 | 95 | 996.4 |
| 20260507044959 | 62 | 38 | 4.0 | 8.0 | 0.00 | 2.31 | 0.00 | 95 | 996.5 |
| 20260507044500 | 61 | 20 | 3.0 | 8.0 | 0.00 | 2.31 | 0.00 | 95 | 997.1 |
| 20260507043959 | 61 | 39 | 4.0 | 10.0 | 0.00 | 2.31 | 0.00 | 95 | 996.6 |
| 20260507043500 | 61 | 77 | 8.0 | 13.0 | 0.00 | 2.31 | 0.00 | 94 | 996.8 |
| 20260507043000 | 61 | 84 | 13.0 | 18.0 | 0.00 | 2.31 | 0.00 | 94 | 996.0 |
| 20260507042459 | 61 | 84 | 15.0 | 18.0 | 0.00 | 2.31 | 0.00 | 94 | 996.7 |
| 20260507041959 | 61 | 85 | 13.0 | 18.0 | 0.00 | 2.31 | 0.00 | 95 | 996.6 |
| 20260507041459 | 61 | 83 | 13.0 | 18.0 | 0.00 | 2.31 | 0.00 | 95 | 996.5 |
| 20260507041000 | 61 | 83 | 14.0 | 21.0 | 0.00 | 2.31 | 0.00 | 95 | 996.5 |
| 20260507040459 | 61 | 89 | 13.0 | 21.0 | 0.00 | 2.31 | 0.00 | 95 | 996.2 |
| 20260507040000 | 61 | 88 | 15.0 | 22.0 | 0.00 | 2.31 | 0.00 | 95 | 995.7 |
| 20260507035500 | 61 | 86 | 18.0 | 24.0 | 0.00 | 2.31 | 0.00 | 95 | 996.0 |
| 20260507034959 | 61 | 87 | 19.0 | 26.0 | 0.00 | 2.31 | 0.00 | 95 | 995.8 |
| 20260507034459 | 61 | 87 | 21.0 | 28.0 | 0.00 | 2.31 | 0.00 | 95 | 995.8 |
| 20260507034000 | 61 | 87 | 23.0 | 28.0 | 0.01 | 2.31 | 0.00 | 95 | 995.9 |
| 20260507033459 | 60 | 87 | 23.0 | 27.0 | 0.01 | 2.31 | 0.00 | 95 | 996.5 |
| 20260507032959 | 60 | 87 | 21.0 | 26.0 | 0.02 | 2.31 | 0.00 | 95 | 996.5 |
| 20260507032459 | 60 | 91 | 20.0 | 27.0 | 0.02 | 2.31 | 0.00 | 95 | 996.6 |
| 20260507031959 | 60 | 96 | 19.0 | 27.0 | 0.05 | 2.31 | 0.00 | 95 | 996.3 |
| 20260507031459 | 60 | 106 | 17.0 | 31.0 | 0.11 | 2.31 | 0.00 | 95 | 996.4 |
| 20260507031000 | 60 | 118 | 17.0 | 31.0 | 0.13 | 2.31 | 0.00 | 95 | 995.4 |
| 20260507025501 | 60 | 92 | 20.0 | 29.0 | 0.16 | 2.31 | 2.31 | 95 | 998.3 |
| 20260507025000 | 60 | 99 | 19.0 | 29.0 | 0.16 | 2.31 | 2.31 | 95 | 998.5 |
| 20260507024500 | 60 | 104 | 20.0 | 29.0 | 0.16 | 2.31 | 2.31 | 95 | 997.1 |
| 20260507024000 | 60 | 106 | 21.0 | 29.0 | 0.15 | 2.31 | 2.31 | 95 | 999.2 |
| 20260507023501 | 60 | 111 | 18.0 | 29.0 | 0.15 | 2.31 | 2.31 | 95 | 998.5 |
| 20260507023000 | 60 | 112 | 16.0 | 26.0 | 0.14 | 2.30 | 2.30 | 95 | 999.5 |
| 20260507022500 | 60 | 103 | 19.0 | 32.0 | 0.13 | 2.29 | 2.29 | 95 | 999.9 |
| 20260507022000 | 60 | 101 | 20.0 | 32.0 | 0.11 | 2.27 | 2.27 | 95 | 1000.1 |
| 20260507021500 | 60 | 110 | 19.0 | 30.0 | 0.05 | 2.20 | 2.20 | 95 | 1000.6 |
| 20260507021000 | 60 | 115 | 21.0 | 32.0 | 0.03 | 2.19 | 2.19 | 95 | 999.8 |
| 20260507020500 | 60 | 116 | 20.0 | 32.0 | 0.02 | 2.17 | 2.17 | 95 | 999.2 |
| 20260507020001 | 60 | 117 | 22.0 | 38.0 | 0.01 | 2.17 | 2.17 | 95 | 998.9 |
| 20260507015500 | 60 | 118 | 24.0 | 38.0 | 0.00 | 2.16 | 2.16 | 95 | 998.9 |
| 20260507015000 | 60 | 116 | 23.0 | 37.0 | 0.01 | 2.16 | 2.16 | 95 | 999.4 |
| 20260507014501 | 60 | 118 | 25.0 | 37.0 | 0.03 | 2.16 | 2.16 | 95 | 999.2 |
| 20260507014000 | 60 | 120 | 26.0 | 37.0 | 0.07 | 2.16 | 2.16 | 95 | 998.4 |
| 20260507013501 | 60 | 120 | 25.0 | 37.0 | 0.13 | 2.16 | 2.16 | 95 | 999.1 |
| 20260507013000 | 60 | 120 | 24.0 | 37.0 | 0.16 | 2.16 | 2.16 | 95 | 999.1 |
| 20260507012501 | 60 | 120 | 24.0 | 35.0 | 0.18 | 2.16 | 2.16 | 95 | 999.4 |
| 20260507012000 | 60 | 120 | 22.0 | 33.0 | 0.19 | 2.16 | 2.16 | 95 | 999.5 |
| 20260507011500 | 60 | 120 | 21.0 | 36.0 | 0.19 | 2.16 | 2.16 | 95 | 999.8 |
| 20260507011001 | 60 | 121 | 22.0 | 36.0 | 0.19 | 2.16 | 2.16 | 95 | 999.0 |
| 20260507010500 | 59 | 128 | 19.0 | 32.0 | 0.19 | 2.16 | 2.16 | 95 | 998.0 |
| 20260507010000 | 59 | 137 | 18.0 | 37.0 | 0.19 | 2.16 | 2.16 | 95 | 998.2 |
| 20260507005500 | 59 | 135 | 20.0 | 37.0 | 0.19 | 2.16 | 2.16 | 95 | 997.9 |